C/2003 R1 ( LINEAR )

Japanese version
Home page
Total 6,336 html files since Dec. 4, 1995
Updated on August 27, 2004

---------------------------------------------------------------------

* Profile

Discovery Date September 2, 2003
Magnitude 18.3 mag
Discoverer Lincoln Laboratory Near-Earth Asteroid Research project

* Orbital Elements

T 2003 June 29.5921 TT                                  MPC
q   2.101765             (2000.0)            P               Q
n   0.0113266      Peri.  302.6820      +0.5808137      +0.8134993
a  19.636771       Node   356.6902      +0.8050241      -0.5793943
e   0.892968       Incl.  149.1943      -0.1207955      +0.0502102
P  87.0
>From 158 observations 2003 Sept. 2-Nov. 23.

* Finding Charts

* Magnitudes Graph

        m1 = 13.5 + 5 log d + 10.0 log r  [   ,415]  (             - 2004 Aug. 17)
        m1 =  3.8 + 5 log d + 20   log r  [415,   ]  (2004 Aug. 17 -             )

---------------------------------------------------------------------

The orbital elements are published on M.P.E.C. 2003-W50.
The charts are made with StellaNavigator Ver.2.0 for Windows (AstroArts / ASCII).
The magnitudes graphs are made with Comet for Windows.

---------------------------------------------------------------------

Copyright(C) 1995-2008 Seiichi Yoshida (comet@aerith.net). All rights reserved.